Time,TemperatureF,DewpointF,PressureIn,WindDirection,WindDirectionDegrees,WindSpeedMPH,WindSpeedGustMPH,Humidity,HourlyPrecipIn,Conditions,Clouds,dailyrainin,SoftwareType,DateUTC
2013-02-26 00:04:00,25.9,10.0,29.91,South,171,5.0,8.0,52,0.00,,,0.00,weatherlink.com 1.10,2013-02-26 07:04:00,
2013-02-26 00:19:00,26.0,10.0,29.90,SSE,167,2.0,7.0,52,0.00,,,0.00,weatherlink.com 1.10,2013-02-26 07:19:00,
2013-02-26 00:34:00,25.8,11.0,29.90,SSE,162,3.0,7.0,53,0.00,,,0.00,weatherlink.com 1.10,2013-02-26 07:34:00,
2013-02-26 00:49:00,25.5,10.0,29.89,SSE,161,2.0,6.0,53,0.00,,,0.00,weatherlink.com 1.10,2013-02-26 07:49:00,
2013-02-26 01:04:00,25.6,10.0,29.90,SSE,165,5.0,9.0,53,0.00,,,0.00,weatherlink.com 1.10,2013-02-26 08:04:00,
2013-02-26 01:19:00,26.5,11.0,29.90,South,175,4.0,10.0,52,0.00,,,0.00,weatherlink.com 1.10,2013-02-26 08:19:00,
2013-02-26 01:34:00,27.0,11.0,29.91,South,178,1.0,8.0,50,0.00,,,0.00,weatherlink.com 1.10,2013-02-26 08:34:00,
2013-02-26 01:49:00,26.9,10.0,29.89,South,178,2.0,7.0,49,0.00,,,0.00,weatherlink.com 1.10,2013-02-26 08:49:00,
2013-02-26 02:04:00,27.6,10.0,29.88,South,171,4.0,10.0,47,0.00,,,0.00,weatherlink.com 1.10,2013-02-26 09:04:00,
2013-02-26 02:19:00,27.9,9.0,29.87,South,184,6.0,13.0,45,0.00,,,0.00,weatherlink.com 1.10,2013-02-26 09:19:00,
2013-02-26 02:34:00,27.7,9.0,29.88,South,178,3.0,11.0,45,0.00,,,0.00,weatherlink.com 1.10,2013-02-26 09:34:00,
2013-02-26 02:49:00,27.3,8.0,29.85,South,171,2.0,10.0,45,0.00,,,0.00,weatherlink.com 1.10,2013-02-26 09:49:00,
2013-02-26 03:04:00,26.5,8.0,29.85,South,172,4.0,8.0,45,0.00,,,0.00,weatherlink.com 1.10,2013-02-26 10:04:00,
2013-02-26 03:19:00,25.8,7.0,29.83,South,175,5.0,9.0,44,0.00,,,0.00,weatherlink.com 1.10,2013-02-26 10:19:00,
2013-02-26 03:34:00,25.9,7.0,29.84,South,176,4.0,9.0,44,0.00,,,0.00,weatherlink.com 1.10,2013-02-26 10:34:00,
2013-02-26 03:49:00,25.4,6.0,29.84,South,175,1.0,8.0,44,0.00,,,0.00,weatherlink.com 1.10,2013-02-26 10:49:00,
2013-02-26 04:04:00,25.2,6.0,29.84,South,176,0.0,4.0,44,0.00,,,0.00,weatherlink.com 1.10,2013-02-26 11:04:00,
2013-02-26 04:19:00,23.8,6.0,29.84,South,176,0.0,1.0,47,0.00,,,0.00,weatherlink.com 1.10,2013-02-26 11:19:00,
2013-02-26 04:34:00,21.6,5.0,29.82,South,175,1.0,4.0,50,0.00,,,0.00,weatherlink.com 1.10,2013-02-26 11:34:00,
2013-02-26 04:49:00,20.4,5.0,29.83,South,175,0.0,2.0,52,0.00,,,0.00,weatherlink.com 1.10,2013-02-26 11:49:00,
2013-02-26 05:04:00,19.6,5.0,29.82,South,175,0.0,0.0,54,0.00,,,0.00,weatherlink.com 1.10,2013-02-26 12:04:00,
2013-02-26 05:19:00,19.0,5.0,29.82,South,175,0.0,1.0,54,0.00,,,0.00,weatherlink.com 1.10,2013-02-26 12:19:00,
2013-02-26 05:34:00,19.3,5.0,29.82,South,175,0.0,3.0,55,0.00,,,0.00,weatherlink.com 1.10,2013-02-26 12:34:00,
2013-02-26 05:49:00,18.9,6.0,29.81,South,175,2.0,3.0,57,0.00,,,0.00,weatherlink.com 1.10,2013-02-26 12:49:00,
2013-02-26 06:04:00,18.8,6.0,29.80,South,175,1.0,2.0,57,0.00,,,0.00,weatherlink.com 1.10,2013-02-26 13:04:00,
2013-02-26 06:19:00,19.0,6.0,29.80,South,175,2.0,3.0,58,0.00,,,0.00,weatherlink.com 1.10,2013-02-26 13:19:00,
2013-02-26 06:34:00,18.8,6.0,29.80,South,175,2.0,4.0,57,0.00,,,0.00,weatherlink.com 1.10,2013-02-26 13:34:00,
2013-02-26 06:49:00,18.8,6.0,29.80,South,175,2.0,2.0,57,0.00,,,0.00,weatherlink.com 1.10,2013-02-26 13:49:00,
2013-02-26 07:04:00,18.4,6.0,29.81,South,175,1.0,4.0,58,0.00,,,0.00,weatherlink.com 1.10,2013-02-26 14:04:00,
2013-02-26 07:19:00,19.0,6.0,29.80,South,175,1.0,4.0,57,0.00,,,0.00,weatherlink.com 1.10,2013-02-26 14:19:00,
2013-02-26 07:34:00,19.2,6.0,29.80,South,175,0.0,5.0,57,0.00,,,0.00,weatherlink.com 1.10,2013-02-26 14:34:00,
2013-02-26 07:49:00,22.3,8.0,29.80,South,175,3.0,4.0,54,0.00,,,0.00,weatherlink.com 1.10,2013-02-26 14:49:00,
2013-02-26 08:04:00,26.3,8.0,29.80,South,175,2.0,3.0,47,0.00,,,0.00,weatherlink.com 1.10,2013-02-26 15:04:00,
2013-02-26 08:19:00,28.7,8.0,29.80,South,175,0.0,3.0,42,0.00,,,0.00,weatherlink.com 1.10,2013-02-26 15:19:00,
2013-02-26 08:34:00,29.8,8.0,29.79,South,175,3.0,3.0,40,0.00,,,0.00,weatherlink.com 1.10,2013-02-26 15:34:00,
2013-02-26 08:49:00,29.8,7.0,29.79,South,176,2.0,6.0,39,0.00,,,0.00,weatherlink.com 1.10,2013-02-26 15:49:00,
2013-02-26 09:04:00,30.0,8.0,29.79,NW,321,4.0,7.0,40,0.00,,,0.00,weatherlink.com 1.10,2013-02-26 16:04:00,
2013-02-26 09:19:00,30.3,9.0,29.77,North,349,6.0,9.0,40,0.00,,,0.00,weatherlink.com 1.10,2013-02-26 16:19:00,
2013-02-26 09:34:00,31.1,10.0,29.77,NNW,328,3.0,10.0,41,0.00,,,0.00,weatherlink.com 1.10,2013-02-26 16:34:00,
2013-02-26 09:49:00,31.7,9.0,29.76,West,280,8.0,16.0,39,0.00,,,0.00,weatherlink.com 1.10,2013-02-26 16:49:00,
2013-02-26 10:05:00,32.7,9.0,29.76,West,279,7.0,17.0,37,0.00,,,0.00,weatherlink.com 1.10,2013-02-26 17:05:00,
2013-02-26 10:20:00,33.1,10.0,29.75,West,277,6.0,17.0,38,0.00,,,0.00,weatherlink.com 1.10,2013-02-26 17:20:00,
2013-02-26 10:35:00,33.4,8.0,29.75,West,275,9.0,21.0,35,0.00,,,0.00,weatherlink.com 1.10,2013-02-26 17:35:00,
2013-02-26 10:50:00,33.8,10.0,29.75,WSW,240,9.0,18.0,37,0.00,,,0.00,weatherlink.com 1.10,2013-02-26 17:50:00,
2013-02-26 11:05:00,34.9,10.0,29.75,SW,234,9.0,16.0,36,0.00,,,0.00,weatherlink.com 1.10,2013-02-26 18:05:00,
2013-02-26 11:20:00,35.9,11.0,29.73,West,269,16.0,29.0,36,0.00,,,0.00,weatherlink.com 1.10,2013-02-26 18:20:00,
2013-02-26 11:35:00,34.4,8.0,29.72,West,270,12.0,22.0,33,0.00,,,0.00,weatherlink.com 1.10,2013-02-26 18:35:00,
2013-02-26 11:50:00,35.5,7.0,29.72,West,276,14.0,23.0,31,0.00,,,0.00,weatherlink.com 1.10,2013-02-26 18:50:00,
2013-02-26 12:20:00,33.4,7.0,29.71,West,272,15.0,25.0,33,0.00,,,0.00,weatherlink.com 1.10,2013-02-26 19:20:00,
2013-02-26 12:35:00,32.7,7.0,29.71,West,268,15.0,22.0,34,0.00,,,0.00,weatherlink.com 1.10,2013-02-26 19:35:00,
2013-02-26 12:50:00,31.6,7.0,29.70,West,263,8.0,20.0,36,0.00,,,0.00,weatherlink.com 1.10,2013-02-26 19:50:00,
2013-02-26 13:05:00,31.4,8.0,29.71,West,277,4.0,22.0,38,0.00,,,0.00,weatherlink.com 1.10,2013-02-26 20:05:00,
2013-02-26 13:20:00,32.3,9.0,29.71,West,261,11.0,22.0,38,0.00,,,0.00,weatherlink.com 1.10,2013-02-26 20:20:00,
2013-02-26 13:35:00,32.4,3.0,29.71,NW,316,6.0,22.0,29,0.00,,,0.00,weatherlink.com 1.10,2013-02-26 20:35:00,
2013-02-26 13:50:00,30.7,3.0,29.72,WNW,290,7.0,19.0,31,0.00,,,0.00,weatherlink.com 1.10,2013-02-26 20:50:00,
2013-02-26 14:05:00,33.1,5.0,29.73,NW,306,5.0,22.0,31,0.00,,,0.00,weatherlink.com 1.10,2013-02-26 21:05:00,
2013-02-26 14:20:00,31.8,3.0,29.74,NW,309,2.0,17.0,29,0.00,,,0.00,weatherlink.com 1.10,2013-02-26 21:20:00,
2013-02-26 14:35:00,31.2,4.0,29.73,West,268,12.0,16.0,32,0.00,,,0.00,weatherlink.com 1.10,2013-02-26 21:35:00,
2013-02-26 14:50:00,33.7,5.0,29.74,NNW,330,11.0,17.0,30,0.00,,,0.00,weatherlink.com 1.10,2013-02-26 21:50:00,
2013-02-26 15:05:00,32.7,4.0,29.75,West,278,7.0,20.0,29,0.00,,,0.00,weatherlink.com 1.10,2013-02-26 22:05:00,
2013-02-26 15:20:00,34.4,3.0,29.75,West,272,15.0,18.0,26,0.00,,,0.00,weatherlink.com 1.10,2013-02-26 22:20:00,
2013-02-26 15:35:00,33.0,3.0,29.75,West,262,9.0,23.0,28,0.00,,,0.00,weatherlink.com 1.10,2013-02-26 22:35:00,
2013-02-26 15:50:00,33.9,1.0,29.76,West,277,11.0,20.0,25,0.00,,,0.00,weatherlink.com 1.10,2013-02-26 22:50:00,
2013-02-26 16:05:00,31.9,0.0,29.76,West,260,12.0,18.0,26,0.00,,,0.00,weatherlink.com 1.10,2013-02-26 23:05:00,
2013-02-26 16:21:00,31.0,3.0,29.77,West,281,12.0,16.0,30,0.00,,,0.00,weatherlink.com 1.10,2013-02-26 23:21:00,
2013-02-26 16:35:00,30.0,4.0,29.78,West,270,12.0,15.0,33,0.00,,,0.00,weatherlink.com 1.10,2013-02-26 23:35:00,
2013-02-26 16:51:00,29.6,3.0,29.80,NNW,337,9.0,12.0,32,0.00,,,0.00,weatherlink.com 1.10,2013-02-26 23:51:00,
2013-02-26 17:06:00,28.9,5.0,29.81,NNW,329,0.0,13.0,36,0.00,,,0.00,weatherlink.com 1.10,2013-02-27 00:06:00,
2013-02-26 17:21:00,28.9,2.0,29.82,WNW,292,2.0,10.0,31,0.00,,,0.00,weatherlink.com 1.10,2013-02-27 00:21:00,
2013-02-26 17:36:00,28.7,4.0,29.83,WNW,286,3.0,9.0,34,0.00,,,0.00,weatherlink.com 1.10,2013-02-27 00:36:00,
2013-02-26 17:51:00,28.7,4.0,29.84,WNW,294,1.0,8.0,35,0.00,,,0.00,weatherlink.com 1.10,2013-02-27 00:51:00,
2013-02-26 18:06:00,28.3,5.0,29.85,WNW,290,2.0,6.0,37,0.00,,,0.00,weatherlink.com 1.10,2013-02-27 01:06:00,
2013-02-26 18:21:00,28.0,5.0,29.86,WNW,288,1.0,6.0,37,0.00,,,0.00,weatherlink.com 1.10,2013-02-27 01:21:00,
2013-02-26 18:36:00,27.8,6.0,29.87,WNW,286,1.0,7.0,39,0.00,,,0.00,weatherlink.com 1.10,2013-02-27 01:36:00,
2013-02-26 18:51:00,27.5,7.0,29.89,West,270,3.0,9.0,41,0.00,,,0.00,weatherlink.com 1.10,2013-02-27 01:51:00,
2013-02-26 19:06:00,27.2,8.0,29.90,WNW,303,6.0,9.0,44,0.00,,,0.00,weatherlink.com 1.10,2013-02-27 02:06:00,
2013-02-26 19:21:00,24.8,17.0,29.93,NNW,343,3.0,17.0,71,0.00,,,0.00,weatherlink.com 1.10,2013-02-27 02:21:00,
2013-02-26 19:36:00,22.9,18.0,29.94,North,360,3.0,8.0,81,0.00,,,0.00,weatherlink.com 1.10,2013-02-27 02:36:00,
2013-02-26 19:51:00,22.1,18.0,29.95,North,360,0.0,2.0,84,0.00,,,0.00,weatherlink.com 1.10,2013-02-27 02:51:00,
2013-02-26 20:06:00,21.9,18.0,29.94,North,360,0.0,3.0,85,0.00,,,0.00,weatherlink.com 1.10,2013-02-27 03:06:00,
2013-02-26 20:21:00,21.5,17.0,29.95,North,360,0.0,3.0,84,0.00,,,0.00,weatherlink.com 1.10,2013-02-27 03:21:00,
2013-02-26 20:36:00,21.4,17.0,29.96,North,360,0.0,3.0,84,0.00,,,0.00,weatherlink.com 1.10,2013-02-27 03:36:00,
2013-02-26 20:51:00,21.6,17.0,29.98,North,360,0.0,3.0,83,0.00,,,0.00,weatherlink.com 1.10,2013-02-27 03:51:00,
2013-02-26 21:06:00,22.0,17.0,29.99,North,360,1.0,2.0,80,0.00,,,0.00,weatherlink.com 1.10,2013-02-27 04:06:00,
2013-02-26 21:21:00,21.8,17.0,30.00,North,360,0.0,2.0,83,0.00,,,0.00,weatherlink.com 1.10,2013-02-27 04:21:00,
2013-02-26 21:36:00,21.6,18.0,30.01,North,360,0.0,2.0,84,0.00,,,0.00,weatherlink.com 1.10,2013-02-27 04:36:00,
2013-02-26 21:51:00,21.0,17.0,30.02,North,360,1.0,2.0,84,0.00,,,0.00,weatherlink.com 1.10,2013-02-27 04:51:00,
2013-02-26 22:06:00,20.5,16.0,30.03,North,360,0.0,0.0,84,0.00,,,0.00,weatherlink.com 1.10,2013-02-27 05:06:00,
2013-02-26 22:21:00,20.2,16.0,30.03,North,360,1.0,3.0,85,0.00,,,0.00,weatherlink.com 1.10,2013-02-27 05:21:00,
2013-02-26 22:36:00,19.7,15.0,30.04,North,360,0.0,2.0,83,0.00,,,0.00,weatherlink.com 1.10,2013-02-27 05:36:00,
2013-02-26 22:51:00,19.0,14.0,30.04,North,355,0.0,3.0,80,0.00,,,0.00,weatherlink.com 1.10,2013-02-27 05:51:00,
2013-02-26 23:06:00,19.7,14.0,30.04,NNW,345,4.0,6.0,78,0.00,,,0.00,weatherlink.com 1.10,2013-02-27 06:06:00,
2013-02-26 23:21:00,19.2,13.0,30.04,NNW,345,2.0,3.0,78,0.00,,,0.00,weatherlink.com 1.10,2013-02-27 06:21:00,
2013-02-26 23:36:00,18.7,14.0,30.05,NNW,345,0.0,4.0,80,0.00,,,0.00,weatherlink.com 1.10,2013-02-27 06:36:00,
2013-02-26 23:51:00,17.5,12.0,30.06,NNW,345,1.0,2.0,79,0.00,,,0.00,weatherlink.com 1.10,2013-02-27 06:51:00,